Weather History for Mount Ida, AR

Change the Weather History Date:

Sunday, September 1, 2013

  Actual Average (KHOT) Record (KHOT)
Temperature  
Mean Temperature 84 °F -  
Max Temperature 98 °F 91 °F 107 °F (1985)
Min Temperature 69 °F 67 °F 53 °F (1967)
Cooling Degree Days 18    
Growing Degree Days 34 (Base 50)    
Moisture  
Dew Point 70 °F    
Average Humidity 75    
Maximum Humidity 97    
Minimum Humidity 40    
Precipitation  
Precipitation 0.06 in - - ()
Sea Level Pressure  
Sea Level Pressure 29.82 in    
Wind  
Wind Speed 1 mph (WNW)    
Max Wind Speed 6 mph    
Max Gust Speed -    
Visibility 7 miles    
Events Rain    
Averages and records for this station are not official NWS values.
T = Trace of Precipitation, MM = Missing Value Source: NWS Daily Summary

Daily Weather History Graph

Daily Weather History Graph

Search for Another Location

Airport:

Trip Planner

Search our weather history database for the weather conditions in past years. The results will help you decide how hot, cold, wet, or windy it might be!

Date:

Astronomy

Sep. 01, 2013 Rise Set
Actual Time 6:47 AM CDT 7:40 PM CDT
Civil Twilight 6:21 AM CDT 8:05 PM CDT
Nautical Twilight 5:51 AM CDT 8:36 PM CDT
Astronomical Twilight 5:20 AM CDT 9:07 PM CDT
Moon 3:15 AM CDT (9/1) 5:13 PM CDT (9/1)
Length of Visible Light 13h 43m
Length of Day
12h 52m
Waning Crescent, 13% of the Moon is Illuminated
Sep 1
Waning Crescent
Sep 5
New
Sep 12
First Quarter
Sep 19
Full
Sep 26
Last Quarter

Hourly Weather History & Observations

Time (CDT) Temp. Heat Index Dew Point Humidity Pressure Visibility Wind Dir Wind Speed Gust Speed Precip Events Conditions
12:53 AM 72.0 °F - 70.0 °F 93% 29.80 in 5.0 mi Calm Calm - N/A   Clear
1:53 AM 71.1 °F - 70.0 °F 96% 29.80 in 5.0 mi Calm Calm - N/A   Clear
2:53 AM 71.1 °F - 69.1 °F 93% 29.80 in 4.0 mi Calm Calm - N/A   Clear
3:53 AM 70.0 °F - 69.1 °F 97% 29.80 in 4.0 mi Calm Calm - N/A   Clear
4:53 AM 69.1 °F - 68.0 °F 96% 29.81 in 4.0 mi Calm Calm - N/A   Clear
5:53 AM 69.1 °F - 68.0 °F 96% 29.82 in 4.0 mi Calm Calm - N/A   Clear
6:53 AM 69.1 °F - 66.9 °F 93% 29.81 in 2.5 mi Calm Calm - N/A   Clear
7:11 AM 69.8 °F - 66.2 °F 88% 29.85 in 3.0 mi Calm Calm - N/A   Clear
7:53 AM 71.1 °F - 69.1 °F 93% 29.83 in 6.0 mi Calm Calm - N/A   Clear
8:53 AM 79.0 °F - 72.0 °F 79% 29.84 in 8.0 mi Calm Calm - N/A   Clear
9:53 AM 84.9 °F 89.4 °F 70.0 °F 61% 29.85 in 8.0 mi WNW 4.6 mph - N/A   Clear
10:53 AM 89.1 °F 94.1 °F 70.0 °F 53% 29.84 in 9.0 mi West 4.6 mph - N/A   Clear
11:53 AM 91.0 °F 98.2 °F 72.0 °F 53% 29.85 in 10.0 mi Calm Calm - N/A   Clear
12:53 PM 91.9 °F 98.4 °F 71.1 °F 50% 29.83 in 10.0 mi Calm Calm - N/A   Clear
1:53 PM 93.9 °F 102.1 °F 72.0 °F 49% 29.82 in 9.0 mi West 3.5 mph - N/A   Clear
2:53 PM 98.1 °F 105.0 °F 70.0 °F 40% 29.80 in 10.0 mi Calm Calm - N/A   Clear
3:53 PM 95.0 °F 103.2 °F 72.0 °F 47% 29.78 in 9.0 mi Calm Calm - N/A   Scattered Clouds
4:53 PM 90.0 °F 96.9 °F 72.0 °F 55% 29.78 in 10.0 mi Variable 4.6 mph - N/A   Partly Cloudy
5:53 PM 88.0 °F 95.6 °F 73.0 °F 61% 29.76 in 10.0 mi Calm Calm - N/A   Clear
6:53 PM 84.9 °F 91.4 °F 73.0 °F 67% 29.81 in 9.0 mi Calm Calm - N/A   Clear
7:53 PM 82.0 °F 84.9 °F 68.0 °F 62% 29.83 in 10.0 mi Calm Calm - N/A   Partly Cloudy
8:53 PM 75.0 °F - 71.1 °F 87% 29.85 in 6.0 mi West 5.8 mph - 0.03 in Rain Light Rain
9:53 PM 73.9 °F - 72.0 °F 93% 29.83 in 4.0 mi Calm Calm - 0.03 in Rain Light Rain
10:53 PM 73.0 °F - 70.0 °F 90% 29.86 in 10.0 mi NW 5.8 mph - 0.00 in   Scattered Clouds
11:53 PM 72.0 °F - 70.0 °F 93% 29.85 in 9.0 mi Calm Calm - N/A   Clear